KA8JMW-WX Weather Reports


time (UTC)temp
F
wind
direction
speed
knots
gust
knots
rain 1hr
in
rain 24hr
in
rain mn
in
humidity
%
barometer
mb
20230208160515 33 324 6.1 9.6 0.00 0.18 0.00 72 1008.2
20230208155515 32 318 5.2 8.7 0.00 0.18 0.00 76 1008.2
20230208154515 31 328 5.2 7.8 0.00 0.18 0.00 77 1007.9
20230208153515 31 307 5.2 7.8 0.00 0.18 0.00 77 1007.8
20230208152515 30 275 6.1 8.7 0.00 0.18 0.00 80 1007.8
20230208151515 29 278 6.1 8.7 0.00 0.18 0.00 83 1007.2
20230208150515 27 271 7.0 11.3 0.00 0.18 0.00 87 1006.6
20230208145515 26 274 7.0 9.6 0.00 0.18 0.00 89 1006.6
20230208144515 25 273 6.1 10.4 0.00 0.18 0.00 90 1006.0
20230208143515 24 278 7.0 10.4 0.00 0.18 0.00 90 1006.1
20230208142515 24 270 7.0 9.6 0.00 0.18 0.00 90 1006.0
20230208141515 24 271 6.1 8.7 0.00 0.18 0.00 90 1006.0
20230208140515 24 271 7.0 8.7 0.00 0.18 0.00 89 1006.0
20230208135515 24 294 4.3 7.8 0.00 0.18 0.00 86 1005.9
20230208134515 25 291 4.3 7.8 0.00 0.18 0.00 85 1006.4
20230208133515 25 299 6.1 8.7 0.00 0.18 0.00 86 1006.4
20230208132515 25 298 5.2 7.8 0.00 0.18 0.00 87 1006.4
20230208131515 25 280 5.2 9.6 0.00 0.18 0.00 88 1006.4
20230208130535 24 294 5.2 11.3 0.00 0.18 0.00 90 1006.0
20230208125515 24 307 4.3 7.0 0.00 0.18 0.00 92 1005.9
20230208124515 25 302 5.2 8.7 0.00 0.18 0.00 92 1006.4
20230208123515 25 304 4.3 7.0 0.00 0.18 0.00 94 1006.5
20230208122535 25 307 6.1 9.6 0.00 0.18 0.00 94 1006.8
20230208121515 26 322 4.3 7.0 0.00 0.18 0.00 94 1007.2
20230208120515 26 312 4.3 8.7 0.00 0.18 0.00 94 1007.8
20230208115515 27 309 4.3 7.8 0.00 0.18 0.00 94 1007.9
20230208114515 27 313 3.5 7.8 0.00 0.18 0.00 94 1008.0
20230208113515 27 323 2.6 3.5 0.00 0.18 0.00 93 1008.2
20230208112515 27 316 2.6 5.2 0.00 0.18 0.00 93 1008.1
20230208111515 27 313 3.5 5.2 0.00 0.18 0.00 93 1008.7
20230208110515 27 287 0.0 2.6 0.00 0.18 0.00 93 1008.8
20230208105515 27 0.0 0.0 0.00 0.18 0.00 93 1008.8
20230208104535 27 0.0 0.0 0.00 0.18 0.00 94 1008.7
20230208103515 27 0.0 0.0 0.00 0.18 0.00 94 1009.0
20230208102515 27 305 0.0 0.9 0.00 0.18 0.00 94 1009.0
20230208101535 27 315 2.6 3.5 0.00 0.18 0.00 94 1008.9
20230208100515 27 316 1.7 2.6 0.00 0.18 0.00 94 1008.7
20230208095515 27 286 3.5 5.2 0.00 0.18 0.00 94 1009.2
20230208094535 27 294 2.6 3.5 0.00 0.18 0.00 93 1009.0
20230208093535 28 285 3.5 5.2 0.00 0.18 0.00 93 1008.9
20230208092515 28 288 2.6 4.3 0.00 0.18 0.00 93 1008.8
20230208091555 28 274 3.5 6.1 0.00 0.18 0.00 92 1008.9
20230208090515 29 291 2.6 4.3 0.00 0.18 0.00 92 1009.4
20230208085515 28 286 3.5 5.2 0.00 0.18 0.00 93 1009.5
20230208084515 29 277 5.2 8.7 0.00 0.18 0.00 92 1009.5
20230208083535 29 278 4.3 6.1 0.00 0.18 0.00 92 1009.3
20230208082535 28 286 2.6 5.2 0.00 0.18 0.00 92 1009.1
20230208081515 28 0.0 0.0 0.00 0.18 0.00 93 1009.5
20230208080515 28 0.0 0.0 0.00 0.18 0.00 93 1009.8
20230208075515 28 0.0 0.0 0.00 0.18 0.00 92 1009.4
20230208074535 28 0.0 0.0 0.00 0.18 0.00 92 1009.6
20230208073515 28 0.0 0.0 0.00 0.18 0.00 92 1009.7
20230208072515 28 0.0 0.0 0.00 0.18 0.00 92 1009.8
20230208071515 28 0.0 0.0 0.00 0.18 0.00 92 1010.0
20230208070515 29 0.0 0.0 0.00 0.18 0.00 92 1009.8
20230208065515 29 0.0 0.0 0.00 0.18 0.18 93 1009.5
20230208064515 29 0.0 0.0 0.00 0.18 0.18 92 1009.6
20230208063515 29 0.0 0.0 0.00 0.18 0.18 93 1010.1
20230208062515 29 0.0 0.0 0.00 0.18 0.18 92 1009.9
20230208061515 29 0.0 0.0 0.00 0.18 0.18 92 1009.9
20230208060515 29 0.0 0.0 0.00 0.18 0.18 92 1010.2
20230208055515 29 0.0 0.0 0.00 0.18 0.18 92 1010.2
20230208054515 29 0.0 0.0 0.00 0.18 0.18 92 1010.8
20230208053515 29 0.0 0.0 0.00 0.18 0.18 92 1010.9
20230208052515 29 0.0 0.0 0.00 0.18 0.18 92 1010.9
20230208051515 29 0.0 0.0 0.00 0.18 0.18 92 1010.9
20230208050515 30 0.0 0.0 0.00 0.18 0.18 92 1010.9
20230208045515 30 0.0 0.0 0.00 0.18 0.18 92 1011.4
20230208044515 30 0.0 0.0 0.00 0.18 0.18 92 1011.6
20230208043515 30 0.0 0.0 0.00 0.18 0.18 91 1011.6
20230208042515 30 0.0 0.0 0.00 0.18 0.18 91 1011.4
20230208041515 30 0.0 0.0 0.00 0.18 0.18 91 1011.1
20230208040515 30 0.0 0.0 0.00 0.18 0.18 91 1011.2
20230208035515 30 0.0 0.0 0.00 0.18 0.18 91 1011.1
20230208034515 30 0.0 0.0 0.00 0.18 0.18 90 1011.1
20230208033515 30 0.0 0.0 0.00 0.18 0.18 90 1011.1
20230208032515 30 0.0 0.0 0.00 0.18 0.18 90 1010.7
20230208031515 30 0.0 0.0 0.00 0.18 0.18 90 1010.6
20230208030535 30 0.0 0.0 0.00 0.18 0.18 90 1010.4
20230208025515 30 0.0 0.0 0.00 0.18 0.18 90 1010.2
20230208024515 30 0.0 0.0 0.00 0.18 0.18 90 1010.2
20230208023515 30 0.0 0.0 0.00 0.18 0.18 90 1010.2
20230208022515 30 0.0 0.0 0.00 0.18 0.18 90 1010.2
20230208021515 30 0.0 0.0 0.00 0.18 0.18 89 1010.2
20230208020515 30 0.0 0.0 0.00 0.18 0.18 89 1010.2
20230208015535 31 0.0 0.0 0.00 0.18 0.18 88 1010.2
20230208014515 31 63 0.0 0.9 0.00 0.18 0.18 87 1010.2
20230208013515 31 0.0 0.0 0.00 0.18 0.18 87 1010.1
20230208012515 31 0.0 0.0 0.00 0.18 0.18 87 1010.2
20230208011515 31 0.0 0.0 0.00 0.18 0.18 87 1010.1
20230208010515 31 0.0 0.0 0.00 0.18 0.18 87 1010.1
20230208005515 31 0.0 0.0 0.00 0.18 0.18 87 1010.0
20230208004536 32 0.0 0.0 0.00 0.18 0.18 86 1010.3
20230208003535 32 0.0 0.0 0.01 0.18 0.18 85 1010.3
20230208002515 32 199 1.7 3.5 0.01 0.18 0.18 85 1010.2
20230208001536 33 187 2.6 4.3 0.01 0.18 0.18 84 1010.2
20230208000515 34 148 0.0 3.5 0.01 0.18 0.18 83 1010.7
20230207235555 34 174 0.9 3.5 0.01 0.18 0.18 82 1010.7
20230207234515 34 174 1.7 3.5 0.02 0.18 0.18 82 1010.7
20230207233515 34 186 3.5 5.2 0.01 0.17 0.17 82 1010.6
20230207232515 34 165 2.6 4.3 0.01 0.17 0.17 83 1010.6
20230207231535 35 112 3.5 5.2 0.02 0.17 0.17 80 1010.5
20230207230515 35 177 0.9 3.5 0.02 0.17 0.17 79 1010.5
20230207225515 35 132 0.9 3.5 0.03 0.17 0.17 77 1010.6
20230207224515 35 177 1.7 3.5 0.02 0.16 0.16 79 1010.4
20230207223515 35 124 2.6 4.3 0.03 0.16 0.16 78 1010.3
20230207222515 35 119 0.9 1.7 0.03 0.16 0.16 78 1010.4
20230207221535 35 123 2.6 4.3 0.03 0.15 0.15 78 1010.3
20230207220515 34 110 2.6 6.1 0.03 0.15 0.15 80 1010.2
20230207215515 35 128 3.5 6.1 0.03 0.14 0.14 81 1010.4
20230207214535 35 88 1.7 4.3 0.03 0.14 0.14 81 1010.5
20230207213515 34 64 4.3 7.0 0.03 0.13 0.13 83 1010.1
20230207212515 33 100 6.1 8.7 0.03 0.13 0.13 85 1010.1
20230207211515 33 112 5.2 7.8 0.03 0.12 0.12 85 1010.2
20230207210515 34 89 5.2 7.8 0.03 0.12 0.12 82 1010.2
20230207205515 35 69 5.2 7.8 0.03 0.11 0.11 80 1010.7
20230207204515 33 65 7.8 11.3 0.03 0.11 0.11 81 1010.7
20230207203515 33 61 6.1 8.7 0.03 0.10 0.10 82 1010.7
20230207202515 33 62 7.0 11.3 0.03 0.10 0.10 84 1010.7
20230207201515 33 52 7.0 11.3 0.03 0.09 0.09 83 1011.0
20230207200515 34 65 7.8 12.2 0.03 0.09 0.09 82 1011.0
20230207195515 33 68 7.0 10.4 0.03 0.08 0.08 81 1011.2
20230207194515 33 61 8.7 13.9 0.03 0.08 0.08 81 1011.2
20230207193515 32 60 9.6 14.8 0.03 0.07 0.07 84 1010.8
20230207192515 33 61 9.6 17.4 0.04 0.07 0.07 82 1011.4
20230207191515 33 67 9.6 13.0 0.04 0.06 0.06 81 1011.6
20230207190515 31 72 10.4 15.6 0.04 0.06 0.06 86 1011.0
20230207185535 30 92 8.7 13.0 0.04 0.05 0.05 88 1010.8
20230207184515 30 103 9.6 14.8 0.05 0.05 0.05 88 1011.0
20230207183515 31 114 11.3 19.1 0.04 0.04 0.04 85 1011.3
20230207182515 31 118 8.7 13.9 0.03 0.03 0.03 85 1011.0
20230207181515 30 103 8.7 11.3 0.02 0.02 0.02 86 1011.0
20230207180515 31 81 8.7 13.9 0.02 0.02 0.02 87 1011.1
20230207175515 31 91 8.7 13.0 0.01 0.01 0.01 86 1011.3
20230207174515 33 102 7.0 9.6 0.00 0.00 0.00 82 1011.8
20230207173515 34 76 4.3 7.0 0.00 0.00 0.00 83 1011.5
20230207172535 33 96 4.3 6.1 0.00 0.00 0.00 82 1011.3
20230207171535 33 95 2.6 5.2 0.00 0.00 0.00 83 1011.2
20230207170515 33 102 4.3 6.1 0.00 0.00 0.00 81 1011.1
20230207165515 34 82 3.5 6.1 0.00 0.00 0.00 80 1011.6
20230207164515 34 0.0 0.0 0.00 0.00 0.00 81 1011.9
20230207163515 34 0.0 0.0 0.00 0.00 0.00 81 1011.8
20230207162516 34 31 0.0 2.6 0.00 0.00 0.00 84 1011.6
20230207161535 33 49 0.9 4.3 0.00 0.00 0.00 85 1011.3